Date String (YYYY-MM-DD hh:mm:ss) UTC,Instrument flags,absolute air pressure of the measurement (hPa),sample flow rate (lpm),inlet stack bypass flow (lpm),air temperature of the measurement (°C),ambient temperature measured by the external sensor (°C),aerosol sample conditioner tube jacket temperature (°C),OPC LED temperature (°C),internal box temperature (°C),relative humidity of the measurement (%),span deviation,mass concentration of particles derived from Lorenz-Mie calculation of OPC scattering (μg/m³),mass concentration of particles derived from Lorenz-Mie calculation of OPC scattering (μg/m³),mass concentration of particles derived from Lorenz-Mie calculation of OPC scattering (μg/m³)
DateTimeUTC,F1_M11,P_M11,Q1_M11,Q2_M11,T1_M11,T2_M11,T3_M11,T4_M11,T5_M11,U1_M11,ZSPAN_M11,X0_M11,X2_M11,X1_M11
2023-11-16 13:00:00,SystemResetWarning,0822.9,5.00,000.00,026.1,025.1,000.0,034.5,027.5,7.3,0000.0,0007.80,0002.86,0002.17
2023-11-16 13:01:00,SystemResetWarning,0822.7,4.99,000.00,026.1,025.1,000.0,034.5,027.6,7.3,0000.0,0007.25,0002.68,0002.06
2023-11-16 13:02:00,SystemResetWarning,0823.1,4.99,000.00,026.1,025.1,000.0,034.5,027.6,7.3,0000.0,0007.57,0002.58,0002.00
2023-11-16 13:03:00,SystemResetWarning,0823.1,5.02,000.00,026.1,025.1,000.0,034.5,027.5,7.4,0000.0,0007.51,0002.51,0001.96
2023-11-16 13:04:00,SystemResetWarning,0823.1,5.00,000.00,026.1,025.1,000.0,034.5,027.5,7.4,0000.0,0006.59,0002.56,0001.99
2023-11-16 13:05:00,SystemResetWarning,0822.9,4.98,000.00,026.1,025.1,000.0,034.5,027.5,7.4,0000.0,0006.33,0002.73,0002.07
2023-11-16 13:06:00,SystemResetWarning,0822.8,5.00,000.00,026.1,025.1,000.0,034.5,027.5,7.4,0000.0,0006.61,0002.86,0002.13
2023-11-16 13:07:00,SystemResetWarning,0823.0,5.01,000.00,026.1,025.1,000.0,034.5,027.5,7.4,0000.0,0006.65,0002.98,0002.20
2023-11-16 13:08:00,SystemResetWarning,0822.8,5.00,000.00,026.1,025.1,000.0,034.5,027.5,7.4,0000.0,0006.44,0003.04,0002.27
2023-11-16 13:09:00,SystemResetWarning,0822.9,5.00,000.00,026.1,025.0,000.0,034.5,027.5,7.4,0000.0,0006.90,0003.11,0002.34
2023-11-16 13:10:00,SystemResetWarning,0822.9,4.99,000.00,026.1,025.0,000.0,034.5,027.5,7.5,0000.0,0007.39,0003.17,0002.41
2023-11-16 13:11:00,SystemResetWarning,0822.9,4.99,000.00,026.1,025.0,000.0,034.5,027.4,7.5,0000.0,0007.35,0003.23,0002.47
2023-11-16 13:12:00,SystemResetWarning,0823.0,5.00,000.00,026.1,025.0,000.0,034.5,027.4,7.4,0000.0,0007.67,0003.31,0002.52
2023-11-16 13:13:00,SystemResetWarning,0823.1,5.01,000.00,026.1,025.0,000.0,034.5,027.4,7.4,0000.0,0007.53,0003.40,0002.58
2023-11-16 13:14:00,SystemResetWarning,0822.9,5.01,000.00,026.1,025.0,000.0,034.5,027.5,7.5,0000.0,0007.62,0003.48,0002.62
2023-11-16 13:15:00,SystemResetWarning,0823.0,5.00,000.00,026.1,025.0,000.0,034.5,027.5,7.6,0000.0,0008.19,0003.50,0002.60
2023-11-16 13:16:00,SystemResetWarning,0822.9,4.99,000.00,026.1,025.0,000.0,034.5,027.4,7.3,0000.0,0008.69,0003.50,0002.58
2023-11-16 13:17:00,SystemResetWarning,0823.0,4.99,000.00,026.1,025.0,000.0,034.5,027.4,7.1,0000.0,0008.94,0003.52,0002.60
2023-11-16 13:18:00,SystemResetWarning,0823.1,5.00,000.00,026.1,024.9,000.0,034.5,027.4,7.2,0000.0,0008.92,0003.53,0002.60
2023-11-16 13:19:00,SystemResetWarning,0823.2,5.00,000.00,026.0,024.9,000.0,034.4,027.4,7.1,0000.0,0009.24,0003.56,0002.59
2023-11-16 13:20:00,SystemResetWarning,0823.3,5.00,000.00,026.0,024.9,000.0,034.4,027.4,7.0,0000.0,0009.98,0003.61,0002.59
2023-11-16 13:21:00,SystemResetWarning,0823.3,5.01,000.00,026.0,024.9,000.0,034.4,027.4,6.9,0000.0,0010.40,0003.67,0002.60
2023-11-16 13:22:00,SystemResetWarning,0823.2,5.01,000.00,026.0,024.9,000.0,034.4,027.4,6.9,0000.0,0010.46,0003.65,0002.60
2023-11-16 13:23:00,SystemResetWarning,0823.1,4.99,000.00,026.0,024.9,000.0,034.4,027.4,7.0,0000.0,0010.15,0003.58,0002.59
2023-11-16 13:24:00,SystemResetWarning,0823.0,4.99,000.00,026.0,024.9,000.0,034.4,027.4,7.0,0000.0,0010.02,0003.53,0002.55
2023-11-16 13:25:00,SystemResetWarning,0822.9,4.99,000.00,026.0,024.8,000.0,034.4,027.4,7.0,0000.0,0009.81,0003.44,0002.50
2023-11-16 13:26:00,SystemResetWarning,0822.9,5.00,000.00,026.0,024.8,000.0,034.4,027.4,7.0,0000.0,0009.40,0003.38,0002.45
2023-11-16 13:27:00,SystemResetWarning,0822.9,5.03,000.00,026.0,024.8,000.0,034.4,027.3,7.0,0000.0,0009.06,0003.30,0002.40
2023-11-16 13:28:00,SystemResetWarning,0823.0,4.99,000.00,026.0,024.8,000.0,034.4,027.3,6.8,0000.0,0008.74,0003.20,0002.33
2023-11-16 13:29:00,SystemResetWarning,0822.8,5.00,000.00,026.0,024.8,000.0,034.4,027.3,6.8,0000.0,0008.70,0003.14,0002.30
2023-11-16 13:30:00,SystemResetWarning,0822.9,4.99,000.00,026.0,024.9,000.0,034.4,027.4,6.8,0000.0,0008.50,0003.10,0002.26
2023-11-16 13:31:00,SystemResetWarning,0822.9,4.99,000.00,026.0,024.9,000.0,034.4,027.4,6.9,0000.0,0007.55,0003.02,0002.22
2023-11-16 13:32:00,SystemResetWarning,0823.0,5.00,000.00,026.0,024.9,000.0,034.4,027.4,7.0,0000.0,0006.65,0002.84,0002.16
2023-11-16 13:33:00,SystemResetWarning,0823.0,5.00,000.00,026.0,024.9,000.0,034.4,027.4,7.1,0000.0,0006.37,0002.80,0002.12
2023-11-16 13:34:00,SystemResetWarning,0823.1,5.00,000.00,026.0,024.8,000.0,034.4,027.4,7.0,0000.0,0006.77,0002.76,0002.09
2023-11-16 13:35:00,SystemResetWarning,0823.1,5.00,000.00,026.0,024.8,000.0,034.4,027.4,7.0,0000.0,0006.73,0002.70,0002.05
2023-11-16 13:36:00,SystemResetWarning,0823.1,5.00,000.00,026.0,024.8,000.0,034.4,027.4,7.0,0000.0,0007.83,0002.69,0002.04
2023-11-16 13:37:00,SystemResetWarning,0823.0,5.00,000.00,026.0,024.8,000.0,034.4,027.4,7.0,0000.0,0007.78,0002.66,0002.03
2023-11-16 13:38:00,SystemResetWarning,0823.0,5.00,000.00,026.0,024.8,000.0,034.4,027.3,6.9,0000.0,0007.11,0002.64,0002.02
2023-11-16 13:39:00,SystemResetWarning,0823.0,5.00,000.00,026.0,024.8,000.0,034.4,027.4,6.9,0000.0,0006.89,0002.65,0002.01
2023-11-16 13:40:00,SystemResetWarning,0822.9,5.00,000.00,026.0,024.8,000.0,034.4,027.4,6.9,0000.0,0007.28,0002.63,0001.99
2023-11-16 13:41:00,SystemResetWarning,0822.9,5.00,000.00,026.0,024.8,000.0,034.4,027.3,6.8,0000.0,0007.27,0002.57,0001.97
2023-11-16 13:42:00,SystemResetWarning,0822.9,5.01,000.00,026.0,024.8,000.0,034.4,027.3,6.9,0000.0,0007.18,0002.50,0001.96
2023-11-16 13:43:00,SystemResetWarning,0822.9,5.00,000.00,026.0,024.9,000.0,034.4,027.3,6.8,0000.0,0006.96,0002.43,0001.95
2023-11-16 13:44:00,SystemResetWarning,0822.9,5.00,000.00,026.0,024.9,000.0,034.4,027.4,6.7,0000.0,0006.46,0002.34,0001.93
2023-11-16 13:45:00,SystemResetWarning,0823.0,5.01,000.00,026.0,024.9,000.0,034.4,027.4,7.3,0000.0,0005.93,0002.33,0001.93
2023-11-16 13:46:00,SystemResetWarning,0823.0,5.00,000.00,026.0,025.0,000.0,034.4,027.4,7.2,0000.0,0005.68,0002.33,0001.92
2023-11-16 13:47:00,SystemResetWarning,0823.0,5.00,000.00,026.0,025.0,000.0,034.4,027.4,7.2,0000.0,0004.06,0002.32,0001.91
2023-11-16 13:48:00,SystemResetWarning,0823.1,5.00,000.00,026.0,025.0,000.0,034.4,027.4,7.3,0000.0,0003.87,0002.27,0001.91
2023-11-16 13:49:00,SystemResetWarning,0823.1,5.00,000.00,026.0,025.0,000.0,034.4,027.5,7.2,0000.0,0004.05,0002.28,0001.91
2023-11-16 13:50:00,SystemResetWarning,0823.1,5.00,000.00,026.0,025.0,000.0,034.4,027.5,7.1,0000.0,0004.20,0002.27,0001.90
2023-11-16 13:51:00,SystemResetWarning,0823.1,5.00,000.00,026.0,025.0,000.0,034.4,027.5,7.1,0000.0,0003.63,0002.28,0001.91
2023-11-16 13:52:00,SystemResetWarning,0823.1,5.00,000.00,026.0,025.1,000.0,034.4,027.4,7.1,0000.0,0003.51,0002.26,0001.90
2023-11-16 13:53:00,SystemResetWarning,0823.2,5.00,000.00,026.0,025.1,000.0,034.4,027.4,7.1,0000.0,0003.45,0002.24,0001.90
2023-11-16 13:54:00,SystemResetWarning,0823.3,5.00,000.00,026.0,025.1,000.0,034.4,027.5,7.3,0000.0,0003.38,0002.26,0001.91
2023-11-16 13:55:00,SystemResetWarning,0823.3,5.00,000.00,026.0,025.1,000.0,034.4,027.5,7.3,0000.0,0003.47,0002.27,0001.90
2023-11-16 13:56:00,SystemResetWarning,0823.3,5.00,000.00,026.0,025.0,000.0,034.4,027.4,7.4,0000.0,0003.63,0002.29,0001.89
2023-11-16 13:57:00,SystemResetWarning,0823.3,5.00,000.00,026.0,025.0,000.0,034.4,027.5,7.3,0000.0,0003.66,0002.28,0001.88
2023-11-16 13:58:00,SystemResetWarning,0823.3,5.00,000.00,026.0,025.0,000.0,034.4,027.5,7.3,0000.0,0003.93,0002.24,0001.87
2023-11-16 13:59:00,SystemResetWarning,0823.3,5.00,000.00,026.0,025.0,000.0,034.4,027.4,7.5,0000.0,0005.51,0002.23,0001.86
